This demonstration page uses our WeatherBlox Daily Observations layout. Learn more.

Left ArrowRight Arrow

47.50024, -111.30081

Hourly Observations for January 18, 2022

Temp ( °F °C ) Dew Point ( °F °C ) Humidity (%) Winds ( mph kmh ) Pressure ( in mb ) Visibility ( mi km ) Precip ( " mm )
12:53 am 00:53 Clear 42 5.6 28 -2.2 58 58 WSW 16 26 29.71 1006 10 16 0.00 0.00
1:53 am 01:53 Clear 41 5 27 -2.8 57 57 W 17 28 29.75 1007 10 16 0.00 0.00
2:15 am 02:15 Mostly Clear 34 1.1 26 -3.3 73 73 N 25 41 29.88 1012 10 16 0.00 0.00
2:29 am 02:29 Mostly Cloudy 31 -0.6 27 -2.8 85 85 N 20 31 29.92 1013 9 14 0.00 0.00
2:39 am 02:39 Cloudy 31 -0.6 28 -2.2 89 89 N 24 39 29.93 1014 8 13 0.00 0.00
2:53 am 02:53 Cloudy with Mist and Fog 26 -3.3 24 -4.4 92 92 N 25 41 29.89 1012 4 6 0.00 0.00
3:31 am 03:31 Cloudy 21 -6.1 17 -8.3 85 85 N 23 37 30.09 1019 10 16 0.00 0.00
3:38 am 03:38 Cloudy 21 -6.1 16 -8.9 81 81 N 24 39 30.09 1019 10 16 0.00 0.00
3:53 am 03:53 Cloudy 21 -6.1 16 -8.9 81 81 N 24 39 29.98 1015 10 16 0.00 0.00
4:42 am 04:42 Cloudy with Light Snow 18 -7.8 11 -11.7 74 74 N 14 22 30.21 1023 9 14 0.00 0.00
4:53 am 04:53 Cloudy 18 -7.8 11 -11.7 74 74 NNW 13 20 30.08 1019 10 16 0.00 0.00
5:28 am 05:28 Cloudy with Light Snow 16 -8.9 10 -12.2 77 77 NNW 15 24 30.23 1024 2 3 0.00 0.00
5:42 am 05:42 Cloudy with Light Snow 16 -8.9 9 -12.8 74 74 N 14 22 30.25 1024 6 10 0.00 0.00
5:53 am 05:53 Cloudy 15 -9.4 8 -13.3 74 74 NNW 15 24 30.13 1020 9 14 0.00 0.00
6:19 am 06:19 Cloudy with Light Snow 15 -9.4 8 -13.3 74 74 NW 14 22 30.29 1026 5 8 0.01 0.25
6:28 am 06:28 Cloudy with Light Snow 14 -10 8 -13.3 77 77 NW 16 26 30.30 1026 2 3 0.01 0.25
6:36 am 06:36 Mostly Cloudy with Light Snow 14 -10 9 -12.8 80 80 NNW 13 20 30.31 1026 1 2 0.02 0.51
6:53 am 06:53 Mostly Cloudy with Light Snow 12 -11.1 8 -13.3 84 84 NNW 15 24 30.19 1022 1 1 0.03 0.76
7:20 am 07:20 Cloudy with Light Snow 11 -11.7 8 -13.3 88 88 NNW 9 15 30.37 1028 1 1 0.02 0.51
7:36 am 07:36 Mostly Cloudy with Light Snow 11 -11.7 8 -13.3 88 88 NW 10 17 30.38 1029 1 1 0.03 0.76
7:53 am 07:53 Cloudy with Light Snow 11 -11.7 8 -13.3 88 88 NNW 10 17 30.22 1023 1 1 0.04 1.02
8:13 am 08:13 Cloudy with Light Snow 11 -11.7 7 -13.9 84 84 NNW 14 22 30.39 1029 2 3 0.01 0.25
8:42 am 08:42 Cloudy with Light Snow 11 -11.7 5 -15 77 77 N 10 17 30.40 1029 6 10 0.01 0.25
8:53 am 08:53 Cloudy with Light Snow 11 -11.7 4 -15.6 73 73 NNW 8 13 30.26 1025 5 8 0.01 0.25
9:53 am 09:53 Cloudy with Light Snow 10 -12.2 3 -16.1 73 73 N 10 17 30.28 1025 6 10 0.00 0.00
10:21 am 10:21 Cloudy with Light Snow 10 -12.2 3 -16.1 73 73 undefined N/A 30.46 1031 3 4 0.00 0.00
10:39 am 10:39 Cloudy 11 -11.7 4 -15.6 73 73 undefined N/A 30.45 1031 8 13 0.00 0.00
10:53 am 10:53 Cloudy with Light Snow 11 -11.7 4 -15.6 73 73 NNW 5 7 30.30 1026 3 5 0.00 0.00
10:55 am 10:55 Cloudy with Light Snow 11 -11.7 4 -15.6 73 73 NNW 5 7 30.45 1031 2 3 0.00 0.00
10:59 am 10:59 Cloudy with Light Snow 10 -12.2 4 -15.6 76 76 N 5 7 30.46 1031 1 2 0.00 0.00
11:53 am 11:53 Cloudy with Light Snow 10 -12.2 4 -15.6 76 76 NNW 10 17 30.30 1026 1 2 0.01 0.25
12:04 pm 12:04 Cloudy with Light Snow 9 -12.8 3 -16.1 77 77 undefined N/A 30.48 1032 3 5 0.00 0.00
12:53 pm 12:53 Cloudy with Haze 9 -12.8 3 -16.1 77 77 N 7 11 30.32 1027 3 5 0.00 0.00
1:53 pm 13:53 Cloudy 9 -12.8 2 -16.7 73 73 N 8 13 30.33 1027 3 5 0.00 0.00
2:53 pm 14:53 Cloudy with Light Snow 8 -13.3 1 -17.2 73 73 NNW 6 9 30.39 1029 3 5 0.00 0.00
3:53 pm 15:53 Cloudy with Light Snow 8 -13.3 1 -17.2 73 73 NNE 5 7 30.41 1030 3 5 0.01 0.25
4:35 pm 16:35 Cloudy with Light Snow 7 -13.9 2 -16.7 80 80 N 6 9 30.54 1034 2 3 0.00 0.00
4:53 pm 16:53 Cloudy with Light Snow 7 -13.9 2 -16.7 80 80 NNE 7 11 30.45 1031 3 5 0.00 0.00
5:42 pm 17:42 Cloudy with Light Snow 6 -14.4 0 -17.8 76 76 N 5 7 30.58 1036 2 3 0.00 0.00
5:53 pm 17:53 Cloudy with Light Snow 6 -14.4 1 -17.2 79 79 Calm 30.48 1032 2 3 0.00 0.00
6:04 pm 18:04 Cloudy with Light Snow 6 -14.4 2 -16.7 83 83 NNE 3 6 30.59 1036 2 2 0.01 0.25
6:11 pm 18:11 Cloudy with Light Snow 6 -14.4 2 -16.7 83 83 Calm 30.60 1036 1 2 0.01 0.25
6:33 pm 18:33 Cloudy with Light Snow 6 -14.4 2 -16.7 83 83 NNE 5 7 30.60 1036 2 3 0.02 0.51
6:51 pm 18:51 Cloudy with Light Snow 7 -14 1 -17 78 78 NNE 5 7 30.60 1036 3 5 0.02 0.51
6:53 pm 18:53 Cloudy with Light Snow 6 -14.4 2 -16.7 83 83 NNE 5 7 30.51 1033 3 5 0.02 0.51
7:25 pm 19:25 Cloudy with Light Snow 6 -14.4 2 -16.7 83 83 NE 6 9 30.61 1037 3 4 0.00 0.00
7:34 pm 19:34 Cloudy with Light Snow 6 -14.4 2 -16.7 83 83 NE 6 9 30.61 1037 3 5 0.00 0.00
7:53 pm 19:53 Cloudy with Light Snow 6 -14.4 1 -17.2 79 79 NNE 3 6 30.52 1034 3 5 0.00 0.00
8:06 pm 20:06 Cloudy with Light Snow 6 -14.4 1 -17.2 79 79 NE 3 6 30.62 1037 2 3 0.00 0.00
8:16 pm 20:16 Cloudy with Light Snow 6 -14.4 1 -17.2 79 79 NE 3 6 30.62 1037 1 2 0.01 0.25
8:23 pm 20:23 Cloudy with Light Snow 6 -14.4 2 -16.7 83 83 NE 3 6 30.62 1037 2 3 0.01 0.25
8:31 pm 20:31 Cloudy with Light Snow 6 -14.4 1 -17.2 79 79 NE 5 7 30.63 1037 2 3 0.01 0.25
8:53 pm 20:53 Cloudy with Light Snow 6 -14.4 2 -16.7 83 83 NE 6 9 30.55 1034 2 3 0.01 0.25
9:05 pm 21:05 Cloudy with Light Snow 6 -14.4 2 -16.7 83 83 NE 3 6 30.64 1038 3 5 0.00 0.00
9:53 pm 21:53 Cloudy with Light Snow 6 -14.4 1 -17.2 79 79 ENE 3 6 30.57 1035 3 5 0.00 0.00
10:13 pm 22:13 Cloudy with Light Snow 5 -15 2 -16.7 87 87 ESE 5 7 30.67 1039 3 4 0.01 0.25
10:16 pm 22:16 Cloudy with Light Snow 5 -15 2 -16.7 87 87 ESE 3 6 30.67 1039 3 5 0.01 0.25
10:29 pm 22:29 Cloudy with Light Snow 5 -15 2 -16.7 87 87 E 3 6 30.67 1039 3 5 0.01 0.25
10:42 pm 22:42 Cloudy with Light Snow 6 -14.4 2 -16.7 83 83 ENE 3 6 30.66 1038 3 4 0.01 0.25
10:53 pm 22:53 Cloudy with Light Snow 5 -15 1 -17.2 83 83 NE 9 15 30.59 1036 5 8 0.01 0.25
11:11 pm 23:11 Cloudy with Light Snow 4 -15.6 0 -17.8 83 83 NE 9 15 30.70 1040 5 8 0.00 0.00
11:53 pm 23:53 Cloudy with Light Snow 4 -15.6 -1 -18.3 80 80 NE 7 11 30.61 1037 4 6 0.00 0.00

Powered by AerisWeather